• In Hungary
  • List of Countries
  • For 7 days
  • Water Temperature
  • Satellite Maps
  • Weather Map
  • News
  • Weather Widgets
  • user-avatar
    Login

    Hourly Weather Milowo

    Today, 25 September, Tuesday

    Time Temperature Precipitation Wind Pressure Humidity
    00:00 +5°C° 0.1 mm 5 mps 742 mmHg 65%
    01:00 +5°C° 0 mm 4 mps 743 mmHg 69%
    02:00 +5°C° 0.1 mm 5 mps 743 mmHg 69%
    03:00 +5°C° 0.1 mm 5 mps 744 mmHg 68%
    04:00 +5°C° 0.1 mm 5 mps 744 mmHg 68%
    05:00 +5°C° 0 mm 5 mps 745 mmHg 65%
    06:00 +6°C° 0 mm 5 mps 745 mmHg 62%
    07:00 +5°C° 0 mm 6 mps 746 mmHg 59%
    08:00 +7°C° 0 mm 6 mps 747 mmHg 53%
    09:00 +9°C° 0 mm 7 mps 747 mmHg 47%
    10:00 +10°C° 0 mm 8 mps 748 mmHg 40%
    11:00 +10°C° 0 mm 7 mps 748 mmHg 39%
    12:00 +10°C° 0 mm 7 mps 749 mmHg 38%
    13:00 +11°C° 0 mm 6 mps 750 mmHg 36%
    14:00 +10°C° 0 mm 6 mps 750 mmHg 37%
    15:00 +10°C° 0 mm 5 mps 750 mmHg 38%
    16:00 +10°C° 0 mm 5 mps 750 mmHg 39%
    17:00 +8°C° 0 mm 4 mps 750 mmHg 44%
    18:00 +8°C° 0 mm 3 mps 750 mmHg 49%
    19:00 +5°C° 0 mm 3 mps 750 mmHg 53%
    20:00 +5°C° 0 mm 3 mps 750 mmHg 56%
    21:00 +5°C° 0 mm 3 mps 751 mmHg 59%
    22:00 +5°C° 0 mm 3 mps 751 mmHg 62%
    23:00 +5°C° 0 mm 3 mps 751 mmHg 67%

    Tomorrow, 26 September, Wednesday

    Time Temperature Precipitation Wind Pressure Humidity
    00:00 +4°C° 0 mm 4 mps 751 mmHg 71%
    01:00 +4°C° 0 mm 4 mps 751 mmHg 76%
    02:00 +5°C° 0 mm 4 mps 750 mmHg 77%
    03:00 +5°C° 0 mm 5 mps 750 mmHg 79%
    04:00 +5°C° 0 mm 5 mps 750 mmHg 80%
    05:00 +4°C° 0 mm 6 mps 750 mmHg 76%
    06:00 +4°C° 0 mm 6 mps 749 mmHg 73%
    07:00 +5°C° 0 mm 7 mps 749 mmHg 69%
    08:00 +5°C° 0.2 mm 7 mps 749 mmHg 69%
    09:00 +6°C° 0.2 mm 8 mps 748 mmHg 68%
    10:00 +7°C° 0.2 mm 8 mps 748 mmHg 68%
    11:00 +7°C° 0.3 mm 8 mps 748 mmHg 68%
    12:00 +7°C° 0.3 mm 8 mps 747 mmHg 69%
    13:00 +7°C° 0.3 mm 9 mps 746 mmHg 70%
    14:00 +7°C° 0.3 mm 9 mps 745 mmHg 67%
    15:00 +7°C° 0.3 mm 9 mps 745 mmHg 65%
    16:00 +8°C° 0.3 mm 9 mps 744 mmHg 63%
    17:00 +8°C° 0.1 mm 9 mps 743 mmHg 64%
    18:00 +8°C° 0.1 mm 9 mps 743 mmHg 65%
    19:00 +8°C° 0.1 mm 9 mps 743 mmHg 66%
    20:00 +10°C° 0.1 mm 9 mps 742 mmHg 66%
    21:00 +10°C° 0.1 mm 9 mps 742 mmHg 67%
    22:00 +11°C° 0.1 mm 9 mps 742 mmHg 68%
    23:00 +11°C° 0.1 mm 9 mps 742 mmHg 71%

    Day after tomorrow, 27 September, Thursday

    Time Temperature Precipitation Wind Pressure Humidity
    00:00 +12°C° 0.1 mm 9 mps 741 mmHg 74%
    01:00 +12°C° 0.1 mm 9 mps 741 mmHg 78%
    02:00 +12°C° 0.1 mm 9 mps 741 mmHg 80%
    03:00 +12°C° 0.1 mm 9 mps 741 mmHg 82%
    04:00 +13°C° 0.1 mm 8 mps 741 mmHg 84%
    05:00 +13°C° 0.1 mm 8 mps 741 mmHg 84%
    06:00 +13°C° 0.1 mm 8 mps 742 mmHg 85%
    07:00 +14°C° 0.1 mm 7 mps 742 mmHg 85%
    08:00 +14°C° 0.1 mm 7 mps 742 mmHg 84%
    09:00 +14°C° 0.1 mm 7 mps 742 mmHg 82%
    10:00 +15°C° 0.1 mm 7 mps 743 mmHg 81%
    11:00 +15°C° 0.1 mm 7 mps 743 mmHg 80%
    12:00 +15°C° 0.1 mm 7 mps 742 mmHg 79%
    13:00 +15°C° 0.1 mm 7 mps 742 mmHg 78%
    14:00 +15°C° 0 mm 7 mps 742 mmHg 78%
    15:00 +15°C° 0 mm 7 mps 742 mmHg 77%
    16:00 +15°C° 0 mm 7 mps 741 mmHg 76%
    17:00 +15°C° 0 mm 6 mps 741 mmHg 78%
    18:00 +15°C° 0 mm 6 mps 741 mmHg 79%
    19:00 +14°C° 0 mm 6 mps 740 mmHg 81%
    20:00 +15°C° 0 mm 6 mps 740 mmHg 80%
    21:00 +15°C° 0 mm 7 mps 739 mmHg 79%
    22:00 +15°C° 0 mm 7 mps 738 mmHg 78%
    23:00 +15°C° 0.1 mm 7 mps 738 mmHg 80%

    28 September, Friday

    Time Temperature Precipitation Wind Pressure Humidity
    00:00 +15°C° 0.1 mm 7 mps 737 mmHg 81%
    01:00 +14°C° 0.1 mm 7 mps 736 mmHg 82%
    02:00 +14°C° 0.4 mm 7 mps 736 mmHg 82%
    03:00 +14°C° 0.4 mm 7 mps 736 mmHg 83%
    04:00 +12°C° 0.4 mm 7 mps 736 mmHg 84%
    05:00 +11°C° 0.1 mm 7 mps 736 mmHg 80%
    06:00 +10°C° 0.1 mm 6 mps 736 mmHg 77%
    07:00 +9°C° 0.1 mm 6 mps 737 mmHg 73%
    08:00 +10°C° 0 mm 6 mps 737 mmHg 68%
    09:00 +10°C° 0 mm 6 mps 738 mmHg 62%
    10:00 +11°C° 0 mm 6 mps 738 mmHg 57%
    11:00 +11°C° 0 mm 6 mps 738 mmHg 57%
    12:00 +11°C° 0 mm 6 mps 739 mmHg 57%
    13:00 +11°C° 0 mm 6 mps 739 mmHg 56%
    14:00 +11°C° 0 mm 6 mps 739 mmHg 58%
    15:00 +12°C° 0 mm 5 mps 739 mmHg 59%
    16:00 +12°C° 0 mm 5 mps 739 mmHg 60%
    17:00 +11°C° 0 mm 4 mps 739 mmHg 65%
    18:00 +8°C° 0 mm 4 mps 740 mmHg 69%
    19:00 +8°C° 0 mm 3 mps 740 mmHg 74%
    20:00 +8°C° 0 mm 3 mps 740 mmHg 74%
    21:00 +7°C° 0 mm 3 mps 740 mmHg 75%
    22:00 +7°C° 0 mm 2 mps 741 mmHg 76%
    23:00 +7°C° 0 mm 2 mps 741 mmHg 74%

    29 September, Saturday

    Time Temperature Precipitation Wind Pressure Humidity
    00:00 +6°C° 0 mm 2 mps 741 mmHg 73%
    01:00 +6°C° 0 mm 2 mps 742 mmHg 71%
    02:00 +7°C° 0 mm 1 mps 742 mmHg 71%
    03:00 +7°C° 0 mm 1 mps 742 mmHg 70%
    04:00 +7°C° 0 mm 1 mps 742 mmHg 70%
    05:00 +7°C° 0 mm 1 mps 743 mmHg 70%
    06:00 +7°C° 0 mm 1 mps 743 mmHg 70%
    07:00 +8°C° 0 mm 1 mps 744 mmHg 69%
    08:00 +9°C° 0 mm 1 mps 744 mmHg 63%
    09:00 +11°C° 0 mm 1 mps 745 mmHg 56%
    10:00 +12°C° 0 mm 1 mps 746 mmHg 49%
    11:00 +12°C° 0 mm 1 mps 746 mmHg 46%
    12:00 +13°C° 0 mm 1 mps 746 mmHg 43%
    13:00 +13°C° 0 mm 2 mps 746 mmHg 40%
    14:00 +13°C° 0 mm 1 mps 746 mmHg 41%
    15:00 +13°C° 0 mm 1 mps 746 mmHg 43%
    16:00 +13°C° 0 mm 1 mps 746 mmHg 44%
    17:00 +11°C° 0 mm 1 mps 746 mmHg 48%
    18:00 +9°C° 0 mm 2 mps 746 mmHg 53%
    19:00 +8°C° 0 mm 2 mps 746 mmHg 57%
    20:00 +7°C° 0 mm 2 mps 746 mmHg 60%
    21:00 +7°C° 0 mm 2 mps 746 mmHg 62%
    22:00 +6°C° 0 mm 2 mps 747 mmHg 64%
    23:00 +5°C° 0 mm 3 mps 746 mmHg 64%

    30 September, Sunday

    Time Temperature Precipitation Wind Pressure Humidity
    00:00 +5°C° 0 mm 3 mps 746 mmHg 65%
    01:00 +4°C° 0 mm 3 mps 746 mmHg 65%
    02:00 +4°C° 0 mm 3 mps 746 mmHg 66%
    03:00 +4°C° 0 mm 3 mps 746 mmHg 66%
    04:00 +4°C° 0 mm 4 mps 745 mmHg 67%
    05:00 +4°C° 0 mm 4 mps 745 mmHg 66%
    06:00 +4°C° 0 mm 4 mps 745 mmHg 66%
    07:00 +4°C° 0 mm 4 mps 745 mmHg 65%
    08:00 +6°C° 0 mm 4 mps 745 mmHg 59%
    09:00 +8°C° 0 mm 4 mps 745 mmHg 53%
    10:00 +11°C° 0 mm 4 mps 745 mmHg 47%
    11:00 +12°C° 0 mm 4 mps 745 mmHg 45%
    12:00 +13°C° 0 mm 4 mps 744 mmHg 44%
    13:00 +13°C° 0 mm 4 mps 744 mmHg 42%
    14:00 +13°C° 0 mm 4 mps 743 mmHg 43%
    15:00 +13°C° 0 mm 4 mps 743 mmHg 45%
    16:00 +12°C° 0 mm 3 mps 742 mmHg 47%
    17:00 +11°C° 0 mm 3 mps 742 mmHg 52%
    18:00 +10°C° 0 mm 3 mps 742 mmHg 56%
    19:00 +8°C° 0 mm 2 mps 742 mmHg 61%
    20:00 +8°C° 0 mm 2 mps 742 mmHg 62%
    21:00 +7°C° 0 mm 2 mps 742 mmHg 64%
    22:00 +7°C° 0 mm 2 mps 741 mmHg 65%
    23:00 +7°C° 0 mm 3 mps 741 mmHg 64%
    Show more